Lambertville, MI

3:18 AM EDT on April 24, 2018 (GMT -0400)
Lambertville

Weather History for KDUH - December, 2013

Change the Weather History Date:

Wednesday, December 4, 2013

  Actual Average (KTOL) Record (KTOL)
Temperature  
Mean Temperature 48 °F -  
Max Temperature 60 °F 38 °F 66 °F (1941)
Min Temperature 35 °F 24 °F -1 °F (1966)
Degree Days  
Heating Degree Days 18    
Moisture  
Dew Point 44 °F    
Average Humidity 82    
Maximum Humidity 93    
Minimum Humidity 72    
Precipitation  
Precipitation 0.00 in - - ()
Sea Level Pressure  
Sea Level Pressure 29.79 in    
Wind  
Wind Speed 3 mph (SSE)    
Max Wind Speed 13 mph    
Max Gust Speed 21 mph    
Visibility 6 miles    
Events      
Averages and records for this station are not official NWS values.
T = Trace of Precipitation, MM = Missing Value Source: NWS Daily Summary

Daily Weather History Graph

Daily Weather History Graph

Search for Another Location

Airport or City:

Astronomy

Dec. 04, 2013 Rise Set
Actual Time 7:45 AM EST 5:04 PM EST
Civil Twilight 7:14 AM EST 5:35 PM EST
Nautical Twilight 6:39 AM EST 6:10 PM EST
Astronomical Twilight 6:06 AM EST 6:43 PM EST
Moon 9:12 AM EST (12/4) 7:14 PM EST (12/4)
Length of Visible Light 10h 20m
Length of Day
9h 18m
Waxing Crescent, 4% of the Moon is Illuminated
Dec 4
Waxing Crescent
Dec 9
First Quarter
Dec 17
Full
Dec 25
Last Quarter
Jan 1
New

Hourly Weather History & Observations

Time (EST) Temp. Windchill Dew Point Humidity Pressure Visibility Wind Dir Wind Speed Gust Speed Precip Events Conditions
12:15 AM 39.2 °F - 35.6 °F 87% 29.86 in 4.0 mi Calm Calm - N/A   Overcast
12:35 AM 39.2 °F - 35.6 °F 87% 29.86 in 4.0 mi Calm Calm - N/A   Overcast
12:55 AM 39.2 °F - 35.6 °F 87% 29.85 in 4.0 mi Calm Calm - N/A   Overcast
1:15 AM 39.2 °F - 35.6 °F 87% 29.85 in 3.0 mi Calm Calm - N/A   Overcast
1:35 AM 37.4 °F - 35.6 °F 93% 29.85 in 3.0 mi Calm Calm - N/A   Overcast
1:55 AM 37.4 °F 34.9 °F 35.6 °F 93% 29.84 in 3.0 mi ESE 3.5 mph - N/A   Overcast
2:15 AM 39.2 °F - 35.6 °F 87% 29.84 in 3.0 mi Calm Calm - N/A   Overcast
2:35 AM 37.4 °F - 35.6 °F 93% 29.84 in 2.5 mi Calm Calm - N/A   Mostly Cloudy
2:55 AM 37.4 °F 34.9 °F 33.8 °F 87% 29.83 in 2.5 mi ESE 3.5 mph - N/A   Mostly Cloudy
3:15 AM 37.4 °F - 35.6 °F 93% 29.85 in 2.5 mi Calm Calm - N/A   Scattered Clouds
3:35 AM 35.6 °F - 33.8 °F 93% 29.85 in 1.8 mi Calm Calm - N/A   Mostly Cloudy
3:55 AM 37.4 °F - 33.8 °F 87% 29.85 in 2.0 mi Calm Calm - N/A   Overcast
4:15 AM 37.4 °F - 35.6 °F 93% 29.85 in 2.5 mi Calm Calm - N/A   Overcast
4:35 AM 37.4 °F - 35.6 °F 93% 29.86 in 2.5 mi Calm Calm - N/A   Overcast
4:55 AM 37.4 °F - 35.6 °F 93% 29.85 in 2.5 mi Calm Calm - N/A   Overcast
5:15 AM 39.2 °F - 37.4 °F 93% 29.85 in 3.0 mi Calm Calm - N/A   Overcast
5:35 AM 41.0 °F - 37.4 °F 87% 29.86 in 3.0 mi Calm Calm - N/A   Overcast
5:55 AM 39.2 °F - 37.4 °F 93% 29.86 in 3.0 mi Calm Calm - N/A   Overcast
6:15 AM 41.0 °F - 37.4 °F 87% 29.87 in 3.0 mi Calm Calm - N/A   Overcast
6:35 AM 41.0 °F - 37.4 °F 87% 29.87 in 3.0 mi Calm Calm - N/A   Overcast
6:55 AM 41.0 °F - 37.4 °F 87% 29.87 in 3.0 mi Calm Calm - N/A   Overcast
7:15 AM 41.0 °F - 37.4 °F 87% 29.87 in 4.0 mi Calm Calm - N/A   Overcast
7:35 AM 41.0 °F - 37.4 °F 87% 29.87 in 3.0 mi Calm Calm - N/A   Overcast
7:55 AM 41.0 °F - 37.4 °F 87% 29.87 in 3.0 mi Calm Calm - N/A   Overcast
8:15 AM 41.0 °F - 37.4 °F 87% 29.87 in 2.5 mi Calm Calm - N/A   Overcast
8:35 AM 42.8 °F - 39.2 °F 87% 29.88 in 2.5 mi Calm Calm - N/A   Overcast
8:55 AM 42.8 °F - 41.0 °F 93% 29.89 in 2.5 mi Calm Calm - N/A   Overcast
9:15 AM 44.6 °F - 41.0 °F 87% 29.89 in 3.0 mi Calm Calm - N/A   Overcast
9:35 AM 44.6 °F - 41.0 °F 87% 29.88 in 4.0 mi Calm Calm - N/A   Overcast
9:55 AM 46.4 °F 45.2 °F 42.8 °F 87% 29.88 in 4.0 mi SE 3.5 mph - N/A   Overcast
10:15 AM 46.4 °F 44.3 °F 42.8 °F 87% 29.88 in 4.0 mi SE 4.6 mph - N/A   Haze
10:35 AM 50.0 °F - 44.6 °F 82% 29.87 in 5.0 mi SE 4.6 mph - N/A   Haze
10:55 AM 50.0 °F - 44.6 °F 82% 29.87 in 5.0 mi SE 6.9 mph - N/A   Haze
11:15 AM 51.8 °F - 44.6 °F 76% 29.85 in 5.0 mi SE 6.9 mph - N/A   Haze
11:35 AM 51.8 °F - 46.4 °F 82% 29.84 in 5.0 mi SSE 6.9 mph - N/A   Haze
11:55 AM 53.6 °F - 46.4 °F 77% 29.83 in 5.0 mi SSE 6.9 mph - N/A   Haze
12:15 PM 53.6 °F - 46.4 °F 77% 29.82 in 5.0 mi SSE 6.9 mph - N/A   Haze
12:35 PM 53.6 °F - 46.4 °F 77% 29.81 in 5.0 mi SSE 6.9 mph - N/A   Haze
12:55 PM 53.6 °F - 48.2 °F 82% 29.80 in 5.0 mi SSE 8.1 mph - N/A   Haze
1:15 PM 53.6 °F - 48.2 °F 82% 29.79 in 5.0 mi SSE 8.1 mph - N/A   Haze
1:35 PM 55.4 °F - 48.2 °F 77% 29.78 in 5.0 mi SSE 8.1 mph - N/A   Haze
1:55 PM 55.4 °F - 50.0 °F 82% 29.77 in 5.0 mi SE 4.6 mph - N/A   Haze
2:15 PM 55.4 °F - 50.0 °F 82% 29.76 in 5.0 mi SE 6.9 mph - N/A   Haze
2:35 PM 55.4 °F - 50.0 °F 82% 29.75 in 7.0 mi SSE 8.1 mph - N/A   Scattered Clouds
2:55 PM 57.2 °F - 50.0 °F 77% 29.75 in 7.0 mi SE 6.9 mph - N/A   Mostly Cloudy
3:15 PM 57.2 °F - 50.0 °F 77% 29.76 in 7.0 mi SSE 8.1 mph - N/A   Overcast
3:35 PM 57.2 °F - 50.0 °F 77% 29.75 in 7.0 mi SE 6.9 mph - N/A   Overcast
3:55 PM 57.2 °F - 50.0 °F 77% 29.74 in 7.0 mi SE 9.2 mph - N/A   Overcast
4:15 PM 57.2 °F - 50.0 °F 77% 29.73 in 7.0 mi SE 8.1 mph - N/A   Mostly Cloudy
4:35 PM 57.2 °F - 50.0 °F 77% 29.73 in 5.0 mi SE 5.8 mph - N/A   Haze
4:55 PM 57.2 °F - 50.0 °F 77% 29.72 in 7.0 mi SE 9.2 mph - N/A   Overcast
5:15 PM 57.2 °F - 50.0 °F 77% 29.72 in 10.0 mi SSE 9.2 mph - N/A   Overcast
5:35 PM 59.0 °F - 50.0 °F 72% 29.72 in 10.0 mi SE 11.5 mph 16.1 mph N/A   Overcast
5:55 PM 59.0 °F - 50.0 °F 72% 29.71 in 10.0 mi SSE 10.4 mph - N/A   Overcast
6:15 PM 57.2 °F - 50.0 °F 77% 29.71 in 10.0 mi SSE 4.6 mph 17.3 mph N/A   Overcast
6:35 PM 57.2 °F - 50.0 °F 77% 29.71 in 10.0 mi SSE 9.2 mph - N/A   Overcast
6:55 PM 59.0 °F - 50.0 °F 72% 29.71 in 10.0 mi South 10.4 mph - N/A   Overcast
7:15 PM 57.2 °F - 50.0 °F 77% 29.71 in 10.0 mi SSE 10.4 mph - N/A   Overcast
7:35 PM 59.0 °F - 50.0 °F 72% 29.71 in 10.0 mi SSE 8.1 mph 17.3 mph N/A   Mostly Cloudy
7:55 PM 59.0 °F - 50.0 °F 72% 29.70 in 10.0 mi SSE 11.5 mph 16.1 mph N/A   Overcast
8:15 PM 59.0 °F - 50.0 °F 72% 29.69 in 10.0 mi SSE 10.4 mph 18.4 mph N/A   Overcast
8:35 PM 59.0 °F - 50.0 °F 72% 29.68 in 10.0 mi South 9.2 mph 18.4 mph N/A   Overcast
8:55 PM 59.0 °F - 50.0 °F 72% 29.68 in 10.0 mi South 9.2 mph 18.4 mph N/A   Overcast
9:15 PM 59.0 °F - 51.8 °F 77% 29.68 in 10.0 mi South 11.5 mph 16.1 mph N/A   Overcast
9:35 PM 59.0 °F - 51.8 °F 77% 29.68 in 10.0 mi South 10.4 mph - N/A   Overcast
9:55 PM 60.8 °F - 51.8 °F 72% 29.67 in 10.0 mi South 12.7 mph 20.7 mph N/A   Overcast
10:15 PM 60.8 °F - 51.8 °F 72% 29.67 in 10.0 mi South 12.7 mph 19.6 mph N/A   Overcast
10:35 PM 59.0 °F - 51.8 °F 77% 29.66 in 10.0 mi South 10.4 mph 20.7 mph N/A   Overcast
10:55 PM 59.0 °F - 51.8 °F 77% 29.66 in 10.0 mi South 10.4 mph 17.3 mph N/A   Overcast
11:15 PM 59.0 °F - 51.8 °F 77% 29.66 in 10.0 mi South 9.2 mph - N/A   Mostly Cloudy
11:35 PM 59.0 °F - 51.8 °F 77% 29.65 in 10.0 mi South 9.2 mph 18.4 mph N/A   Overcast
11:55 PM 60.8 °F - 51.8 °F 72% 29.66 in 10.0 mi South 8.1 mph 18.4 mph N/A   Overcast